Weather History for Chamberlain, SD

Change the Weather History Date:

Tuesday, November 26, 2013

  Actual Average Record
Temperature  
Mean Temperature 20 °F -  
Max Temperature 30 °F 38 °F 66 °F (1998)
Min Temperature 10 °F 20 °F 3 °F (1996)
Degree Days  
Heating Degree Days 45    
Moisture  
Dew Point 12 °F    
Average Humidity 65    
Maximum Humidity 84    
Minimum Humidity 41    
Precipitation  
Precipitation 0.00 in - - ()
Sea Level Pressure  
Sea Level Pressure 30.47 in    
Wind  
Wind Speed 11 mph (North)    
Max Wind Speed 16 mph    
Max Gust Speed 28 mph    
Averages and records for this station are not official NWS values.
T = Trace of Precipitation, MM = Missing Value Source: NWS Daily Summary

Daily Weather History Graph

Daily Weather History Graph

Search for Another Location

Airport:

Trip Planner

Search our weather history database for the weather conditions in past years. The results will help you decide how hot, cold, wet, or windy it might be!

Date:

Astronomy

Nov. 26, 2013 Rise Set
Actual Time 7:45 AM CST 5:03 PM CST
Civil Twilight 7:13 AM CST 5:35 PM CST
Nautical Twilight 6:38 AM CST 6:10 PM CST
Astronomical Twilight 6:03 AM CST 6:45 PM CST
Moon 12:38 AM CST (11/26) 1:22 PM CST (11/26)
Length of Visible Light 10h 21m
Length of Day
9h 17m
Last Quarter, 41% of the Moon is Illuminated
Nov 26
Last Quarter
Dec 2
New
Dec 9
First Quarter
Dec 17
Full
Dec 25
Last Quarter

Hourly Weather History & Observations

Time (CST) Temp. Windchill Dew Point Humidity Pressure Visibility Wind Dir Wind Speed Gust Speed Precip Events Conditions
12:52 AM 24.1 °F 14.4 °F 19.9 °F 84% 30.32 in - WNW 9.2 mph - N/A   Unknown
1:52 AM 26.1 °F 16.2 °F 19.9 °F 78% 30.33 in - NW 10.4 mph - N/A   Unknown
2:52 AM 28.0 °F 17.5 °F 21.0 °F 75% 30.34 in - NW 12.7 mph - N/A   Unknown
3:52 AM 28.9 °F 19.2 °F 21.0 °F 72% 30.35 in - NNW 11.5 mph - N/A   Unknown
4:52 AM 27.0 °F 14.7 °F 16.0 °F 63% 30.38 in - North 16.1 mph 27.6 mph N/A   Unknown
5:52 AM 24.1 °F 11.0 °F 15.1 °F 69% 30.43 in - NNE 16.1 mph 26.5 mph N/A   Unknown
6:52 AM 21.0 °F 7.1 °F 12.9 °F 71% 30.46 in - North 16.1 mph - N/A   Unknown
7:52 AM 19.0 °F 5.0 °F 12.0 °F 74% 30.50 in - North 15.0 mph - N/A   Unknown
8:52 AM 19.0 °F 4.5 °F 8.1 °F 62% 30.53 in - North 16.1 mph 20.7 mph N/A   Unknown
9:52 AM 21.0 °F 9.9 °F 10.9 °F 65% 30.55 in - NNW 10.4 mph - N/A   Unknown
10:52 AM 23.0 °F 10.1 °F 12.0 °F 63% 30.55 in - NW 15.0 mph - N/A   Unknown
11:52 AM 25.0 °F 13.1 °F 10.0 °F 53% 30.54 in - NNW 13.8 mph - N/A   Unknown
12:52 PM 26.1 °F 15.6 °F 10.0 °F 51% 30.53 in - NNW 11.5 mph 19.6 mph N/A   Unknown
1:52 PM 28.9 °F 18.2 °F 10.9 °F 47% 30.50 in - NNW 13.8 mph 19.6 mph N/A   Unknown
2:52 PM 30.0 °F 20.5 °F 9.0 °F 41% 30.48 in - NNW 11.5 mph 19.6 mph N/A   Unknown
3:52 PM 28.9 °F 17.3 °F 9.0 °F 43% 30.48 in - NNW 16.1 mph - N/A   Unknown
4:52 PM 26.1 °F 16.2 °F 10.0 °F 51% 30.48 in - North 10.4 mph - N/A   Unknown
5:52 PM 23.0 °F 13.9 °F 10.9 °F 60% 30.49 in - North 8.1 mph - N/A   Unknown
6:52 PM 19.0 °F 10.0 °F 9.0 °F 65% 30.50 in - NNE 6.9 mph - N/A   Unknown
7:52 PM 16.0 °F 10.4 °F 8.1 °F 71% 30.51 in - East 3.5 mph - N/A   Unknown
8:52 PM 15.1 °F 6.4 °F 7.0 °F 70% 30.50 in - ENE 5.8 mph - N/A   Unknown
9:52 PM 10.9 °F 4.7 °F 5.0 °F 77% 30.51 in - ENE 3.5 mph - N/A   Unknown
10:52 PM 12.9 °F 6.9 °F 6.1 °F 74% 30.50 in - South 3.5 mph - N/A   Unknown
11:52 PM 10.9 °F 2.9 °F 5.0 °F 77% 30.49 in - South 4.6 mph - N/A   Unknown